Content
SEND FEEDBACK

Daily
Averages
Monthly
Summary
United States of America

SOLEDAD, CALIFORNIA


Home > North America > United States > California
Elevation: 200 feet     Latitude: 36 26N     Longitude: 121 19W

WEATHER
 
SELECT A DAY
Number of Records: 199,467;   Date Range: 1/1/95 - 8/12/14
 
SHARE

PRINT THIS DATA

[ ← Previous Day ]
WEATHER ALMANAC - SEPTEMBER 18, 2013
[ Next Day → ]
[ °C ]   °F
Weather ElementAverageHighLow
Temperature60.1 °F77 °F (12:53 pm)51.8 °F (7:30 am)
Dewpoint51.6 °F54 °F (10:53 am)48.9 °F (5:53 pm)
Humidity76.9 %100 % (5:24 am)40 % (12:53 pm)
Barometer29.90 in29.94 in (9:53 am)29.87 in (5:16 am)
Wind Speed4.8 mph19.6 mph (1:53 pm)
Wind Gust23 mph (1:53 pm)
Weather ElementAverage
Visibility6.4 mi
Wind DirectionSSE (164.8 °)

Weather ElementTotal
Precipitation---
Heating Degree Days0.6 (Base 65)
Growing Degree Days14.4 (Base 50)
Averaged from 33 records on September 18, 2013
WEATHER CONDITIONS BREAKOUT
WIND DIRECTION BREAKOUT
WEATHER BY HOUR - SEPTEMBER 18, 2013
[ °C ]   °F
Local TimeTemperatureDewpointHumidityBarometerVisibilityWind DirectionWind SpeedGust SpeedPrecipitationEventsConditions
1:53 AM57.0 °F51.1 °F81 %29.91 in9.0 miNW (320°)4.6 mphClear
2:53 AM55.9 °F51.1 °F84 %29.91 in9.0 miCalmClear
3:53 AM55.9 °F51.1 °F84 %29.89 in8.0 miCalmClear
4:53 AM55.0 °F50.0 °F83 %29.90 in9.0 miWNW (290°)3.5 mphPartly Cloudy
5:04 AM53.6 °F51.8 °F94 %29.88 in8.0 miWNW (300°)4.6 mphMostly Cloudy
5:16 AM53.6 °F51.8 °F94 %29.87 in2.5 miCalmOvercast
5:24 AM53.6 °F53.6 °F100 %29.87 in1.0 miCalmOvercast
5:38 AM53.6 °F53.6 °F100 %29.87 in0.8 miCalmOvercast
5:53 AM54.0 °F53.1 °F97 %29.91 in0.8 miCalmOvercast
6:50 AM53.6 °F53.6 °F100 %29.89 in0.2 miCalmFogFog
6:53 AM54.0 °F53.1 °F97 %29.92 in0.2 miCalmFogFog
7:30 AM51.8 °F51.8 °F100 %29.90 in0.2 miCalmFogFog
7:53 AM52.0 °F51.1 °F97 %29.93 in0.2 miCalmFogFog
8:00 AM51.8 °F51.8 °F100 %29.90 in0.2 miSE (130°)3.5 mphFogFog
8:10 AM51.8 °F51.8 °F100 %29.90 in0.2 miESE (110°)3.5 mphFogFog
8:33 AM53.6 °F51.8 °F94 %29.90 in1.0 miEast (80°)3.5 mphMist
8:43 AM53.6 °F53.6 °F100 %29.90 in3.0 miEast (100°)3.5 mphMostly Cloudy
8:53 AM54.0 °F52.0 °F93 %29.92 in8.0 miESE (110°)8.1 mphScattered Clouds
9:53 AM63.0 °F53.1 °F70 %29.94 in10.0 miCalmClear
10:53 AM71.1 °F54.0 °F55 %29.93 in10.0 miWSW (250°)8.1 mphClear
11:53 AM72.0 °F54.0 °F53 %29.91 in10.0 miWest (280°)6.9 mphClear
12:53 PM77.0 °F51.1 °F40 %29.90 in10.0 miWest (260°)11.5 mphClear
1:53 PM73.0 °F52.0 °F48 %29.89 in10.0 miWest (280°)19.6 mph23.0 mphClear
2:53 PM71.1 °F52.0 °F51 %29.88 in10.0 miWNW (290°)9.2 mphClear
3:53 PM72.0 °F51.1 °F48 %29.87 in10.0 miWest (270°)11.5 mphClear
4:53 PM70.0 °F50.0 °F49 %29.88 in10.0 miWest (280°)12.7 mphClear
5:53 PM68.0 °F48.9 °F50 %29.88 in10.0 miWest (270°)10.4 mphClear
6:53 PM66.0 °F48.9 °F54 %29.88 in10.0 miWest (260°)6.9 mphClear
7:53 PM64.9 °F48.9 °F56 %29.89 in10.0 miNW (310°)5.8 mphClear
8:53 PM63.0 °F50.0 °F63 %29.89 in10.0 miNW (310°)6.9 mphClear
9:53 PM63.0 °F50.0 °F63 %29.89 in10.0 miNNW (330°)5.8 mphClear
10:53 PM61.0 °F50.0 °F67 %29.89 in10.0 miWNW (300°)3.5 mphClear
11:53 PM59.0 °F50.0 °F72 %29.89 in10.0 miNW (310°)3.5 mphClear
Hourly data recorded from KSNS, located miles away from Soledad, California







STORIES FROM OUR PARTNERS